"2009-07-25 00:00:00",1091809,15.33,46.82,1.173,0.232,21.81,111.0656,27.63,28.48,15.47,0,111.3,13.09,28.48,8.8
"2009-07-25 00:00:30",1091810,14.9,46.72,2.044,0.513,24.86,111.074,27.66,28.49,15.42,0,111.3,13.09,28.50,8.7
"2009-07-25 00:01:00",1091811,14.3,46.36,1.286,0.634,24.8,111.0841,27.68,28.52,15.37,0,111.3,13.09,28.53,8.4
"2009-07-25 00:01:30",1091812,14.62,47.4,0.826,0.217,24.72,111.1046,27.73,28.56,15.31,0,111.3,13.09,28.58,9.4
"2009-07-25 00:02:00",1091813,14.79,49.72,1.121,0.333,24.6,111.1182,27.77,28.6,15.24,0,111.3,13.09,28.62,11.7
"2009-07-25 00:02:30",1091814,14.63,47.07,1.751,0.265,24.48,111.1283,27.8,28.62,15.19,0,111.3,13.09,28.64,9.1
"2009-07-25 00:03:00",1091815,14.83,47.68,1.581,0.228,24.76,111.1468,27.84,28.66,15.12,0,111.3,13.09,28.69,9.7
"2009-07-25 00:03:30",1091816,14.55,46.73,2.195,0.513,24.37,111.1531,27.86,28.68,15.11,0,111.3,13.09,28.71,8.7
"2009-07-25 00:04:00",1091817,15.41,44.13,1.046,0.377,24.55,111.1667,27.89,28.72,15.15,0,111.3,13.09,28.74,6.1
"2009-07-25 00:04:30",1091818,15.02,44.49,0.683,0.215,24.55,111.1826,27.93,28.74,15.06,0,111.3,13.09,28.78,6.5
"2009-07-25 00:05:00",1091819,15.14,43.79,1.728,0.365,24.28,111.1925,27.96,28.76,15.15,0,111.3,13.09,28.81,5.8
"2009-07-25 00:05:30",1091820,15.7,38.92,1.543,0.418,24.14,111.1914,27.96,28.77,15.57,0,111.3,13.09,28.81,0.9
"2009-07-25 00:06:00",1091821,15.59,36.76,1.734,0.597,24.02,111.179,27.93,28.78,15.78,0,111.3,13.09,28.77,358.8
"2009-07-25 00:06:30",1091822,14.31,36.25,2.833,1.292,24.06,111.1679,27.9,28.79,15.69,0,111.3,13.09,28.75,358.2
"2009-07-25 00:07:00",1091823,14.15,36.44,2.176,1.344,24.16,111.1654,27.89,28.79,15.71,0,111.3,13.09,28.74,358.4
"2009-07-25 00:07:30",1091824,14.04,35.85,2.75,0.828,23.97,111.15,27.85,28.79,16,0,111.3,13.09,28.70,357.9
"2009-07-25 00:08:00",1091825,14.46,38.63,1.354,0.367,24.12,111.1385,27.82,28.78,15.35,0,111.3,13.09,28.67,0.6
"2009-07-25 00:08:30",1091826,14.06,36.56,1.693,0.608,24.15,111.1346,27.81,28.76,15.22,0,111.3,13.08,28.66,358.6
"2009-07-25 00:09:00",1091827,14.32,37,1.471,0.459,24.22,111.1326,27.81,28.74,15.16,0,111.3,13.08,28.65,359.0
"2009-07-25 00:09:30",1091828,14.24,36.6,0.859,0.417,24.15,111.1312,27.8,28.74,15.12,0,111.3,13.08,28.65,358.6
"2009-07-25 00:10:00",1091829,12.69,49.19,6.651,1.576,24.97,111.133,27.81,28.73,14.58,0,111.3,13.08,28.66,11.2
"2009-07-25 00:10:30",1091830,13.43,41.22,2.582,0.889,24.34,111.1391,27.82,28.73,14.56,0,111.3,13.08,28.67,3.2
"2009-07-25 00:11:00",1091831,13.75,41.44,4.256,1.047,24.45,111.1523,27.86,28.74,14.64,0,111.3,13.08,28.71,3.4
"2009-07-25 00:11:30",1091832,13.88,46.68,2.025,0.439,24.17,111.172,27.91,28.77,14.62,0,111.3,13.08,28.76,8.7
"2009-07-25 00:12:00",1091833,13.13,47.22,1.913,0.294,24.04,111.1846,27.94,28.79,14.69,0,111.3,13.08,28.79,9.2
"2009-07-25 00:12:30",1091834,12.63,46.13,2.112,0.401,24.13,111.2045,27.99,28.81,14.62,0,111.3,13.08,28.84,8.1
"2009-07-25 00:13:00",1091835,12.84,44.92,2.758,0.526,24.17,111.2105,28.01,28.83,14.64,0,111.3,13.08,28.86,6.9
"2009-07-25 00:13:30",1091836,12.89,44.78,1.477,0.302,24.13,111.2178,28.03,28.84,14.59,0,111.3,13.09,28.87,6.8
"2009-07-25 00:14:00",1091837,13.13,44.16,1.56,0.254,24.17,111.2305,28.06,28.89,14.57,0,111.3,13.09,28.91,6.2
"2009-07-25 00:14:30",1091838,12.98,42.96,1.143,0.394,24.05,111.2443,28.09,28.91,14.58,0,111.3,13.09,28.94,5.0
"2009-07-25 00:15:00",1091839,13.6,42.35,2.318,0.55,23.98,111.2455,28.1,28.92,14.68,0,111.3,13.09,28.95,4.3
"2009-07-25 00:15:30",1091840,13.77,42.9,2.718,0.245,23.96,111.2458,28.1,28.95,14.87,0,111.3,13.09,28.95,4.9
"2009-07-25 00:16:00",1091841,13.72,43.87,1.975,0.328,24.03,111.2458,28.1,28.96,14.72,0,111.3,13.09,28.95,5.9
"2009-07-25 00:16:30",1091842,13.21,49.13,2.143,0.229,24.12,111.2458,28.1,28.97,14.8,0,111.3,13.09,28.95,11.1
"2009-07-25 00:17:00",1091843,12.97,47.69,3.257,0.408,23.95,111.2461,28.1,28.98,14.78,0,111.3,13.09,28.95,9.7
"2009-07-25 00:17:30",1091844,12.43,43.8,2.501,0.393,24.02,111.2461,28.1,28.99,14.69,0,111.3,13.09,28.95,5.8
"2009-07-25 00:18:00",1091845,12.96,48.45,2.215,0.28,24.09,111.2466,28.1,29,14.72,0,111.3,13.09,28.95,10.5
"2009-07-25 00:18:30",1091846,12.97,50.24,2.495,0.557,23.99,111.2466,28.1,28.99,14.93,0,111.3,13.09,28.95,12.2
"2009-07-25 00:19:00",1091847,11.46,50.54,1.409,0.481,23.99,111.2458,28.1,29,14.97,0,111.3,13.09,28.95,12.5
"2009-07-25 00:19:30",1091848,11.83,48.69,2.734,0.43,24,111.2458,28.1,29,14.89,0,111.3,13.09,28.95,10.7
"2009-07-25 00:20:00",1091849,12.49,48.42,1.704,0.437,23.98,111.2458,28.1,29.01,14.92,0,111.3,13.09,28.95,10.4
"2009-07-25 00:20:30",1091850,12.83,46.02,1.866,0.418,23.94,111.2458,28.1,29.02,15.08,0,111.3,13.09,28.95,8.0
"2009-07-25 00:21:00",1091851,11.5,46.24,1.438,0.438,23.85,111.2444,28.09,29.01,15.3,0,111.3,13.09,28.94,8.2
"2009-07-25 00:21:30",1091852,11.99,48.48,1.566,0.337,23.86,111.2348,28.07,29.01,15.38,0,111.3,13.09,28.92,10.5
"2009-07-25 00:22:00",1091853,11.85,51.25,1.204,0.146,23.95,111.2219,28.04,28.99,15.08,0,111.3,13.09,28.89,13.2
"2009-07-25 00:22:30",1091854,11.8,49.84,2.431,0.37,23.98,111.218,28.03,28.99,15.1,0,111.3,13.09,28.88,11.8
"2009-07-25 00:23:00",1091855,11.68,50.08,1.07,0.212,23.97,111.2121,28.01,28.98,15.08,0,111.3,13.09,28.86,12.1
"2009-07-25 00:23:30",1091856,12.39,52.46,3.346,0.381,23.95,111.2121,28.01,28.97,14.97,0,111.3,13.09,28.86,14.5
"2009-07-25 00:24:00",1091857,12.3,49.66,1.805,0.343,23.92,111.2121,28.01,28.97,15.02,0,111.3,13.09,28.86,11.7
"2009-07-25 00:24:30",1091858,11.2,47.73,2.537,0.433,23.86,111.2048,27.99,28.97,15.29,0,111.3,13.09,28.84,9.7
"2009-07-25 00:25:00",1091859,10.65,46.69,2.645,0.316,23.79,111.1925,27.96,28.95,15.75,0,111.3,13.09,28.81,8.7
"2009-07-25 00:25:30",1091860,11.62,51.51,2.631,0.3,23.99,111.1869,27.95,28.94,15.25,0,111.3,13.09,28.79,13.5
"2009-07-25 00:26:00",1091861,10.81,47.92,4.449,0.399,23.89,111.1798,27.93,28.92,15.32,0,111.3,13.09,28.78,9.9
"2009-07-25 00:26:30",1091862,11.02,49.57,1.344,0.357,23.96,111.1785,27.92,28.91,15.29,0,111.3,13.09,28.77,11.6
"2009-07-25 00:27:00",1091863,11.09,51.29,2.809,0.493,23.88,111.1782,27.92,28.91,15.55,0,111.3,13.09,28.77,13.3
"2009-07-25 00:27:30",1091864,10.81,48.58,0.895,0.321,23.93,111.1687,27.9,28.89,15.61,0,111.3,13.09,28.75,10.6
"2009-07-25 00:28:00",1091865,10.03,51.87,2.908,0.545,23.88,111.1633,27.88,28.89,15.76,0,111.3,13.09,28.73,13.9
"2009-07-25 00:28:30",1091866,9.82,55.92,3.392,0.589,23.99,111.1586,27.87,28.88,15.84,0,111.3,13.09,28.72,17.9
"2009-07-25 00:29:00",1091867,9.17,54.4,2.846,0.532,23.96,111.1549,27.86,28.88,15.67,0,111.3,13.09,28.71,16.4
"2009-07-25 00:29:30",1091868,9.6,52.33,3.078,0.869,23.9,111.1541,27.86,28.87,16.06,0,111.3,13.09,28.71,14.3
"2009-07-25 00:30:00",1091869,9.25,51.64,4.357,0.859,24.18,111.1551,27.86,28.87,15.52,0,111.3,13.09,28.71,13.6
"2009-07-25 00:30:30",1091870,9.75,55.32,2.176,0.523,24.08,111.1543,27.86,28.85,15.38,0,111.3,13.09,28.71,17.3
"2009-07-25 00:31:00",1091871,9.08,53.57,3.206,0.332,24.17,111.1601,27.88,28.84,14.71,0,111.3,13.09,28.73,15.6
"2009-07-25 00:31:30",1091872,9.02,58.17,3.775,0.54,24.22,111.1633,27.88,28.85,14.58,0,111.3,13.09,28.73,20.2
"2009-07-25 00:32:00",1091873,10.34,54.13,2.358,0.503,24.12,111.17,27.9,28.85,14.6,0,111.3,13.1,28.75,16.1
"2009-07-25 00:32:30",1091874,9.97,55.23,1.457,0.557,24.09,111.181,27.93,28.87,14.63,0,111.3,13.1,28.78,17.2
"2009-07-25 00:33:00",1091875,9.57,55.15,1.608,0.29,24.15,111.1876,27.95,28.87,14.72,0,111.3,13.1,28.80,17.2
"2009-07-25 00:33:30",1091876,10.21,58.8,2.328,0.222,24.16,111.1928,27.96,28.89,14.58,0,111.3,13.1,28.81,20.8
"2009-07-25 00:34:00",1091877,9.88,57.13,1.692,0.199,24.07,111.1967,27.97,28.9,14.53,0,111.3,13.1,28.82,19.1
"2009-07-25 00:34:30",1091878,9.18,56.47,1.183,0.21,24.02,111.2037,27.99,28.91,14.51,0,111.3,13.1,28.84,18.5
"2009-07-25 00:35:00",1091879,8.88,58.04,3.461,0.213,24.01,111.2162,28.02,28.92,14.52,0,111.3,13.1,28.87,20.0
"2009-07-25 00:35:30",1091880,8.48,49.57,0.986,0.248,24.02,111.2282,28.05,28.93,14.5,0,111.3,13.1,28.90,11.6
"2009-07-25 00:36:00",1091881,8.52,47.94,0.903,0.264,23.92,111.2308,28.06,28.94,14.67,0,111.3,13.1,28.91,9.9
"2009-07-25 00:36:30",1091882,8.34,53.81,4.07,0.425,23.97,111.2315,28.06,28.95,14.49,0,111.3,13.1,28.91,15.8
"2009-07-25 00:37:00",1091883,8.09,56.85,1.233,0.319,23.96,111.2359,28.07,28.97,14.42,0,111.3,13.1,28.92,18.8
"2009-07-25 00:37:30",1091884,7.838,55.37,1.387,0.164,23.88,111.2399,28.08,28.98,14.5,0,111.3,13.1,28.93,17.4
"2009-07-25 00:38:00",1091885,7.632,56.36,2.556,0.156,23.88,111.2481,28.1,28.99,14.5,0,111.3,13.1,28.95,18.4
"2009-07-25 00:38:30",1091886,7.593,57.5,2.021,0.205,23.87,111.2617,28.14,29.01,14.45,0,111.3,13.1,28.99,19.5
"2009-07-25 00:39:00",1091887,7.65,53.43,2.514,0.268,23.81,111.2651,28.15,29.03,14.41,0,111.3,13.1,29.00,15.4
"2009-07-25 00:39:30",1091888,7.805,51.38,3.875,0.309,23.79,111.2657,28.15,29.04,14.42,0,111.3,13.1,29.00,13.4
"2009-07-25 00:40:00",1091889,8.35,47.86,1.387,0.298,23.7,111.2694,28.16,29.04,14.49,0,111.3,13.1,29.01,9.9
"2009-07-25 00:40:30",1091890,7.693,48.88,0.869,0.167,23.73,111.273,28.17,29.07,14.47,0,111.3,13.1,29.02,10.9
"2009-07-25 00:41:00",1091891,7.178,53.71,3.271,0.262,23.96,111.278,28.18,29.08,14.35,0,111.3,13.1,29.03,15.7
"2009-07-25 00:41:30",1091892,7.257,48.45,1.329,0.258,23.69,111.2902,28.21,29.09,14.41,0,111.3,13.1,29.06,10.5
"2009-07-25 00:42:00",1091893,7.235,48.61,1.501,0.186,23.68,111.2995,28.24,29.1,14.45,0,111.3,13.1,29.09,10.6
"2009-07-25 00:42:30",1091894,7.646,50.96,3.153,0.299,23.85,111.2985,28.23,29.13,14.45,0,111.3,13.09,29.08,13.0
"2009-07-25 00:43:00",1091895,7.702,51.47,1.642,0.261,23.73,111.3005,28.24,29.14,14.4,0,111.3,13.09,29.09,13.5
"2009-07-25 00:43:30",1091896,7.569,53.65,3.498,0.319,23.86,111.3066,28.25,29.14,14.51,0,111.3,13.09,29.10,15.7
"2009-07-25 00:44:00",1091897,7.119,51.03,2.42,0.35,23.75,111.3144,28.27,29.15,14.33,0,111.3,13.09,29.12,13.0
"2009-07-25 00:44:30",1091898,6.97,46.59,2.322,0.272,23.62,111.3253,28.3,29.17,14.35,0,111.3,13.09,29.15,8.6
"2009-07-25 00:45:00",1091899,6.4,46.48,2.217,0.263,23.61,111.3294,28.31,29.2,14.35,0,111.3,13.09,29.16,8.5
"2009-07-25 00:45:30",1091900,6.692,49.56,2.089,0.317,23.59,111.3309,28.32,29.2,14.42,0,111.3,13.09,29.17,11.6
"2009-07-25 00:46:00",1091901,6.13,47.46,1.881,0.239,23.58,111.3346,28.33,29.22,14.39,0,111.3,13.09,29.18,9.5
"2009-07-25 00:46:30",1091902,6.042,49.03,2.349,0.146,23.58,111.3439,28.35,29.25,14.33,0,111.3,13.09,29.20,11.0
"2009-07-25 00:47:00",1091903,6.153,58.82,2.553,0.28,23.67,111.355,28.38,29.27,14.32,0,111.3,13.09,29.23,20.8
"2009-07-25 00:47:30",1091904,5.529,55.3,3.559,0.341,23.55,111.358,28.39,29.29,14.81,0,111.3,13.09,29.24,17.3
"2009-07-25 00:48:00",1091905,5.866,50.98,2.889,0.227,23.54,111.3551,28.38,29.3,14.58,0,111.3,13.09,29.23,13.0
"2009-07-25 00:48:30",1091906,5.655,50.93,2.905,0.196,23.52,111.3621,28.4,29.32,14.7,0,111.3,13.09,29.25,12.9
"2009-07-25 00:49:00",1091907,5.076,52.36,3.353,0.322,23.5,111.3821,28.45,29.34,14.45,0,111.3,13.1,29.30,14.4
"2009-07-25 00:49:30",1091908,5.88,49.83,2.266,0.198,23.48,111.3834,28.45,29.37,14.63,0,111.3,13.1,29.30,11.8
"2009-07-25 00:50:00",1091909,5.919,55.29,3.423,0.296,23.5,111.3832,28.45,29.36,14.41,0,111.3,13.1,29.30,17.3
"2009-07-25 00:50:30",1091910,6.009,51.05,3.544,0.284,23.42,111.3875,28.46,29.39,14.63,0,111.3,13.1,29.31,13.0
"2009-07-25 00:51:00",1091911,5.734,50.64,2.285,0.272,23.45,111.3931,28.48,29.41,14.78,0,111.3,13.1,29.33,12.6
"2009-07-25 00:51:30",1091912,5.601,49.57,4.378,0.404,23.43,111.4043,28.5,29.43,14.71,0,111.3,13.09,29.36,11.6
"2009-07-25 00:52:00",1091913,5.119,56.66,1.892,0.088,23.32,111.4127,28.53,29.45,14.46,0,111.3,13.09,29.38,18.7
"2009-07-25 00:52:30",1091914,5.164,60.24,3.675,0.129,23.26,111.4141,28.53,29.47,14.71,0,111.3,13.09,29.38,22.2
"2009-07-25 00:53:00",1091915,5.371,61.43,3.704,0.168,23.21,111.4141,28.53,29.47,15.08,0,111.3,13.09,29.38,23.4
"2009-07-25 00:53:30",1091916,5.708,66.1,3.637,0.357,23.21,111.4141,28.53,29.48,15.65,0,111.4,13.09,29.38,28.1
"2009-07-25 00:54:00",1091917,5.933,62.21,2.573,0.242,23.14,111.4141,28.53,29.49,15.83,0,111.3,13.09,29.38,24.2
"2009-07-25 00:54:30",1091918,5.287,60.21,2.731,0.393,23.14,111.4141,28.53,29.5,15.89,0,111.4,13.09,29.38,22.2
"2009-07-25 00:55:00",1091919,5.187,65.23,6.251,0.302,23.16,111.4141,28.53,29.5,15.94,0,111.4,13.09,29.38,27.2
"2009-07-25 00:55:30",1091920,4.69,70.33,10.51,0.555,23.23,111.4141,28.53,29.51,15.69,0,111.4,13.09,29.38,32.3
"2009-07-25 00:56:00",1091921,4.034,85.4,5.34,0.321,23.19,111.4141,28.53,29.52,16.61,0,111.4,13.09,29.38,47.4
"2009-07-25 00:56:30",1091922,3.585,76.9,6.421,0.329,23.19,111.4138,28.53,29.52,16.77,0,111.4,13.09,29.38,38.9
"2009-07-25 00:57:00",1091923,4.463,67.82,4.165,0.375,23.23,111.413,28.53,29.5,16.4,0,111.4,13.09,29.38,29.8
"2009-07-25 00:57:30",1091924,4.972,63.77,4.441,0.26,23.24,111.4116,28.52,29.5,15.87,0,111.4,13.09,29.37,25.8
"2009-07-25 00:58:00",1091925,5.494,68.02,3.197,0.237,23.28,111.4125,28.53,29.49,15.13,0,111.4,13.09,29.38,30.0
"2009-07-25 00:58:30",1091926,5.588,66.59,3.376,0.282,23.28,111.4094,28.52,29.49,15.46,0,111.4,13.09,29.37,28.6
"2009-07-25 00:59:00",1091927,5.014,65.57,6.48,0.401,23.21,111.4077,28.51,29.51,15.75,0,111.4,13.09,29.36,27.6
"2009-07-25 00:59:30",1091928,4.04,84.8,4.954,0.253,23.19,111.4063,28.51,29.5,16.84,0,111.4,13.09,29.36,46.8
"2009-07-25 01:00:00",1091929,4.028,64.07,6.518,0.27,23.19,111.4048,28.51,29.49,16.69,0,111.4,13.09,29.36,26.1
"2009-07-25 01:00:30",1091930,4.579,60.12,2.891,0.507,23.22,111.4032,28.5,29.49,16.6,0,111.4,13.09,29.35,22.1
"2009-07-25 01:01:00",1091931,5.288,62.21,4.455,0.231,23.36,111.4021,28.5,29.49,15.35,0,111.4,13.09,29.35,24.2
"2009-07-25 01:01:30",1091932,4.333,67.06,3.723,0.357,23.23,111.3949,28.48,29.49,16.48,0,111.4,13.08,29.33,29.1
"2009-07-25 01:02:00",1091933,5.245,63,2.201,0.212,23.45,111.3921,28.47,29.49,16.19,0,111.4,13.09,29.32,25.0
"2009-07-25 01:02:30",1091934,5.307,61.65,2.298,0.329,23.49,111.385,28.46,29.47,14.7,0,111.4,13.08,29.31,23.7
"2009-07-25 01:03:00",1091935,6.014,56.19,1.116,0.139,23.32,111.3839,28.45,29.47,14.96,0,111.4,13.09,29.30,18.2
"2009-07-25 01:03:30",1091936,5.642,60.26,3.437,0.176,23.55,111.3836,28.45,29.46,14.6,0,111.4,13.08,29.30,22.3
"2009-07-25 01:04:00",1091937,5.263,60.38,4.275,0.332,23.32,111.3801,28.44,29.47,15.26,0,111.4,13.08,29.29,22.4
"2009-07-25 01:04:30",1091938,5.424,71.24,1.493,0.194,23.7,111.3772,28.44,29.45,14.35,0,111.4,13.09,29.29,33.2
"2009-07-25 01:05:00",1091939,5.506,74.26,1.98,0.149,23.79,111.3758,28.43,29.46,14.19,0,111.4,13.09,29.28,36.3
"2009-07-25 01:05:30",1091940,5.765,75.41,1.037,0.083,23.86,111.3767,28.43,29.45,14.04,0,111.4,13.09,29.28,37.4
"2009-07-25 01:06:00",1091941,5.678,74.74,0.723,0.125,23.89,111.379,28.44,29.44,13.98,0,111.4,13.09,29.29,36.7
"2009-07-25 01:06:30",1091942,5.68,74.18,0.619,0.076,23.87,111.3788,28.44,29.42,13.96,0,111.4,13.09,29.29,36.2
"2009-07-25 01:07:00",1091943,5.549,71.3,0.989,0.048,23.75,111.3799,28.44,29.44,13.99,0,111.4,13.09,29.29,33.3
"2009-07-25 01:07:30",1091944,5.425,67.22,1.634,0.082,23.67,111.3804,28.44,29.44,14.07,0,111.4,13.09,29.29,29.2
"2009-07-25 01:08:00",1091945,5.267,64.27,1.354,0.083,23.57,111.3837,28.45,29.45,14.19,0,111.4,13.09,29.30,26.3
"2009-07-25 01:08:30",1091946,5.253,63.88,2.571,0.085,23.61,111.3916,28.47,29.46,14.2,0,111.4,13.09,29.32,25.9
"2009-07-25 01:09:00",1091947,5.183,64.65,1.654,0.1,23.58,111.4003,28.49,29.46,14.19,0,111.4,13.09,29.35,26.7
"2009-07-25 01:09:30",1091948,5.091,62.72,2.266,0.074,23.56,111.4036,28.5,29.45,14.21,0,111.4,13.09,29.35,24.7
"2009-07-25 01:10:00",1091949,5.114,62.59,1.111,0.075,23.56,111.4045,28.51,29.46,14.25,0,111.4,13.09,29.36,24.6
"2009-07-25 01:10:30",1091950,4.918,64.69,3.364,0.473,23.41,111.4048,28.51,29.46,14.44,0,111.4,13.09,29.36,26.7
"2009-07-25 01:11:00",1091951,4.567,57.27,2.902,0.335,23.45,111.4048,28.51,29.49,15.26,0,111.4,13.09,29.36,19.3
"2009-07-25 01:11:30",1091952,4.97,60.18,1.753,0.143,23.43,111.4048,28.51,29.47,14.43,0,111.4,13.09,29.36,22.2
"2009-07-25 01:12:00",1091953,4.554,61.1,5.012,0.122,23.41,111.4048,28.51,29.48,14.79,0,111.4,13.09,29.36,23.1
"2009-07-25 01:12:30",1091954,4.672,59.25,1.704,0.201,23.56,111.4048,28.51,29.47,14.37,0,111.4,13.09,29.36,21.2
"2009-07-25 01:13:00",1091955,4.75,55.78,0.328,0.042,23.53,111.4048,28.51,29.49,14.34,0,111.4,13.09,29.36,17.8
"2009-07-25 01:13:30",1091956,4.7,55.94,0.773,0.1,23.58,111.4048,28.51,29.47,14.46,0,111.4,13.09,29.36,17.9
"2009-07-25 01:14:00",1091957,4.696,55.93,0.942,0.083,23.65,111.4048,28.51,29.47,14.39,0,111.4,13.09,29.36,17.9
"2009-07-25 01:14:30",1091958,4.639,55.6,0.963,0.051,23.72,111.4048,28.51,29.47,14.34,0,111.4,13.09,29.36,17.6
"2009-07-25 01:15:00",1091959,4.704,54.84,0.719,0.052,23.72,111.4048,28.51,29.49,14.33,0,111.4,13.09,29.36,16.8
"2009-07-25 01:15:30",1091960,4.632,54.51,0.65,0.121,23.67,111.403,28.5,29.48,14.38,0,111.4,13.09,29.35,16.5
"2009-07-25 01:16:00",1091961,4.472,52.3,1.689,0.059,23.67,111.3966,28.48,29.47,14.4,0,111.4,13.09,29.34,14.3
"2009-07-25 01:16:30",1091962,4.54,49.88,0.614,0.071,23.62,111.3818,28.45,29.46,14.41,0,111.4,13.09,29.30,11.9
"2009-07-25 01:17:00",1091963,4.403,50.01,0.974,0.046,23.58,111.3739,28.43,29.45,14.45,0,111.4,13.09,29.28,12.0
"2009-07-25 01:17:30",1091964,4.662,48.39,0.971,0.277,23.59,111.3711,28.42,29.46,14.49,0,111.4,13.09,29.27,10.4
"2009-07-25 01:18:00",1091965,4.56,49.28,1.543,0.153,23.57,111.3635,28.4,29.43,14.92,0,111.4,13.08,29.25,11.3
"2009-07-25 01:18:30",1091966,4.429,47.9,1.534,0.185,23.54,111.3436,28.35,29.41,15.43,0,111.4,13.08,29.20,9.9
"2009-07-25 01:19:00",1091967,3.971,50.36,2.748,0.124,23.54,111.3374,28.33,29.39,15.83,0,111.4,13.08,29.18,12.4
"2009-07-25 01:19:30",1091968,3.895,52.84,2.634,0.208,23.5,111.3246,28.3,29.37,16.08,0,111.4,13.08,29.15,14.8
"2009-07-25 01:20:00",1091969,4.052,48.11,2.632,0.285,23.49,111.3071,28.25,29.35,16.29,0,111.4,13.08,29.11,10.1
"2009-07-25 01:20:30",1091970,3.424,49.39,2.833,0.378,23.48,111.3047,28.25,29.34,16.47,0,111.4,13.09,29.10,11.4
"2009-07-25 01:21:00",1091971,3.619,47.51,3.316,0.157,23.46,111.2913,28.21,29.29,16.85,0,111.4,13.08,29.06,9.5
"2009-07-25 01:21:30",1091972,3.645,47.36,5.785,0.28,23.51,111.2765,28.18,29.27,16.58,0,111.4,13.09,29.03,9.4
"2009-07-25 01:22:00",1091973,3.591,53.14,4.852,0.215,23.5,111.2684,28.16,29.24,16.78,0,111.4,13.09,29.01,15.1
"2009-07-25 01:22:30",1091974,4.067,51.81,3.236,0.253,23.55,111.2475,28.1,29.22,16.54,0,111.4,13.09,28.95,13.8
"2009-07-25 01:23:00",1091975,3.535,57.06,1.751,0.1,23.51,111.2437,28.09,29.18,16.42,0,111.4,13.09,28.94,19.1
"2009-07-25 01:23:30",1091976,3.848,53.14,2.732,0.38,23.58,111.2223,28.04,29.14,16.44,0,111.4,13.09,28.89,15.1
"2009-07-25 01:24:00",1091977,3.973,54.91,2.797,0.166,23.52,111.2121,28.01,29.11,16.5,0,111.4,13.09,28.86,16.9
"2009-07-25 01:24:30",1091978,4.15,58.01,2.633,0.142,23.5,111.195,27.97,29.09,16.59,0,111.4,13.09,28.82,20.0
"2009-07-25 01:25:00",1091979,4.007,52.98,1.499,0.17,23.49,111.1793,27.93,29.05,16.69,0,111.4,13.09,28.78,15.0
"2009-07-25 01:25:30",1091980,3.784,52.53,1.34,0.157,23.58,111.1633,27.88,29.01,16.61,0,111.4,13.09,28.73,14.5
"2009-07-25 01:26:00",1091981,3.858,53.64,3.372,0.253,23.55,111.1479,27.85,28.99,16.74,0,111.4,13.1,28.69,15.6
"2009-07-25 01:26:30",1091982,3.809,63.22,5.612,0.262,23.54,111.1375,27.82,28.95,17.25,0,111.4,13.09,28.67,25.2
"2009-07-25 01:27:00",1091983,3.054,63.22,3.204,0.252,23.51,111.1173,27.77,28.92,17.42,0,111.4,13.1,28.62,25.2
"2009-07-25 01:27:30",1091984,3.302,63.41,3.906,0.388,23.51,111.1114,27.75,28.89,17.55,0,111.4,13.1,28.60,25.4
"2009-07-25 01:28:00",1091985,3.477,60.38,2.047,0.158,23.49,111.103,27.73,28.85,16.74,0,111.4,13.1,28.58,22.4
"2009-07-25 01:28:30",1091986,3.186,57.91,2.008,0.078,23.38,111.0828,27.68,28.82,16.84,0,111.4,13.1,28.53,19.9
"2009-07-25 01:29:00",1091987,3.094,59.44,2.602,0.13,23.27,111.0774,27.66,28.8,17.24,0,111.4,13.1,28.51,21.4
"2009-07-25 01:29:30",1091988,2.996,61.8,5.069,0.168,23.29,111.0637,27.63,28.76,17.55,0,111.4,13.1,28.48,23.8
"2009-07-25 01:30:00",1091989,3.048,58.35,6.027,0.188,23.28,111.0482,27.59,28.73,17.66,0,111.4,13.1,28.44,20.3
"2009-07-25 01:30:30",1091990,3.007,55.19,4.058,0.185,23.24,111.0432,27.58,28.72,17.79,0,111.4,13.1,28.42,17.2
"2009-07-25 01:31:00",1091991,3.11,59.94,3.018,0.229,23.26,111.032,27.55,28.68,18.1,0,111.4,13.1,28.40,21.9
"2009-07-25 01:31:30",1091992,2.948,62.49,2.411,0.251,23.23,111.0154,27.5,28.66,18.31,0,111.3,13.1,28.35,24.5
"2009-07-25 01:32:00",1091993,3.093,60.72,5.441,0.134,23.25,111.0101,27.49,28.62,17.63,0,111.3,13.1,28.34,22.7
"2009-07-25 01:32:30",1091994,2.643,60.58,5.173,0.226,23.18,111.005,27.48,28.6,17.08,0,111.3,13.1,28.33,22.6
"2009-07-25 01:33:00",1091995,2.654,63.21,5.502,0.158,22.95,110.9871,27.43,28.57,17.72,0,111.3,13.1,28.28,25.2
"2009-07-25 01:33:30",1091996,2.425,70.49,2.656,0.355,22.95,110.9809,27.42,28.57,18.42,0,111.3,13.1,28.26,32.5
"2009-07-25 01:34:00",1091997,3.101,59.12,3.422,0.211,23.05,110.9777,27.41,28.54,18.07,0,111.3,13.1,28.26,21.1
"2009-07-25 01:34:30",1091998,3.737,51.97,2.972,0.222,23.02,110.9751,27.4,28.51,17.78,0,111.3,13.1,28.25,14.0
"2009-07-25 01:35:00",1091999,3.633,63.05,5.539,0.31,22.89,110.9641,27.37,28.49,18.47,0,111.3,13.1,28.22,25.0
"2009-07-25 01:35:30",1092000,3.442,68.08,10.59,0.267,22.92,110.9555,27.35,28.47,18.94,0,111.3,13.09,28.20,30.1
"2009-07-25 01:36:00",1092001,2.841,78.06,5.696,0.28,22.9,110.9509,27.34,28.46,19.02,0,111.3,13.09,28.19,40.1
"2009-07-25 01:36:30",1092002,3.857,56.26,2.143,0.483,22.87,110.954,27.35,28.42,18.57,0,111.3,13.09,28.19,18.3
"2009-07-25 01:37:00",1092003,4.13,57.87,2.429,0.232,22.98,110.9521,27.34,28.41,17.97,0,111.3,13.09,28.19,19.9
"2009-07-25 01:37:30",1092004,3.774,53.77,2.831,0.207,22.93,110.9315,27.29,28.38,18.13,0,111.3,13.1,28.14,15.8
"2009-07-25 01:38:00",1092005,3.852,55,3.814,0.113,22.9,110.9261,27.27,28.36,18.33,0,111.3,13.09,28.12,17.0
"2009-07-25 01:38:30",1092006,3.644,53.46,3.488,0.143,22.92,110.9271,27.28,28.35,18.7,0,111.3,13.09,28.12,15.5
"2009-07-25 01:39:00",1092007,4.076,54.36,2.652,0.36,23.01,110.9159,27.25,28.34,18.28,0,111.3,13.1,28.10,16.4
"2009-07-25 01:39:30",1092008,3.761,59.7,3.832,0.197,22.98,110.9041,27.22,28.31,18.25,0,111.3,13.1,28.07,21.7
"2009-07-25 01:40:00",1092009,3.478,54.58,3.455,0.153,22.91,110.8977,27.2,28.3,18.64,0,111.3,13.1,28.05,16.6
"2009-07-25 01:40:30",1092010,4.052,57.28,3.363,0.245,23.03,110.8966,27.2,28.28,18.51,0,111.3,13.1,28.05,19.3
"2009-07-25 01:41:00",1092011,4.648,53.85,3.123,0.28,23.07,110.8918,27.19,28.25,18.25,0,111.3,13.1,28.03,15.8
"2009-07-25 01:41:30",1092012,4.593,53.87,2.218,0.121,23.05,110.8766,27.15,28.23,18.29,0,111.3,13.1,27.99,15.9
"2009-07-25 01:42:00",1092013,4.544,53.25,2.413,0.148,23.01,110.8695,27.13,28.21,18.73,0,111.3,13.1,27.98,15.2
"2009-07-25 01:42:30",1092014,4.985,48.49,2.872,0.182,23.08,110.8686,27.13,28.2,18.54,0,111.3,13.1,27.97,10.5
"2009-07-25 01:43:00",1092015,5.355,49.37,2.579,0.326,23.24,110.8589,27.1,28.17,17.73,0,111.3,13.1,27.95,11.4
"2009-07-25 01:43:30",1092016,5.593,46.74,1.048,0.06,23.23,110.8401,27.05,28.15,17.11,0,111.3,13.1,27.90,8.7
"2009-07-25 01:44:00",1092017,5.542,43.73,0.989,0.076,23.19,110.8357,27.04,28.13,17.47,0,111.3,13.1,27.89,5.7
"2009-07-25 01:44:30",1092018,5.589,43.4,0.802,0.084,23.23,110.8341,27.04,28.1,17.51,0,111.3,13.1,27.88,5.4
"2009-07-25 01:45:00",1092019,5.538,43.91,0.717,0.093,23.27,110.8159,26.99,28.07,17.09,0,111.3,13.1,27.84,5.9
"2009-07-25 01:45:30",1092020,5.519,43.7,0.417,0.054,23.3,110.8077,26.97,28.06,17.04,0,111.3,13.1,27.82,5.7
"2009-07-25 01:46:00",1092021,5.646,42.46,0.786,0.093,23.23,110.803,26.96,28.03,17.07,0,111.3,13.1,27.80,4.5
"2009-07-25 01:46:30",1092022,5.676,41.29,1.08,0.128,23.11,110.8049,26.96,27.99,17.44,0,111.3,13.1,27.81,3.3
"2009-07-25 01:47:00",1092023,5.579,41.71,0.977,0.124,23.1,110.8053,26.96,27.99,18.08,0,111.3,13.11,27.81,3.7
"2009-07-25 01:47:30",1092024,5.635,42.34,0.862,0.07,23.18,110.793,26.93,27.98,18.22,0,111.3,13.1,27.78,4.3
"2009-07-25 01:48:00",1092025,5.812,43.61,0.599,0.112,23.24,110.7853,26.91,27.96,17.75,0,111.3,13.11,27.76,5.6